Hourly Data Report for October 01, 2017

All times are specified in Local Standard Time (LST). Add 1 hour to adjust for Daylight Saving Time where and when it is observed.

CORAL HARBOUR A
NUNAVUT

64°11'36.000" N
83°21'34.000" W
62.20 m
2301002
71915
YZS

Download Data

Hourly Data (October 2017)
Hourly Data Report for October 1, 2017
Temp Definition
°C
Dew Point Temp Definition
°C
Rel Hum Definition
%
Wind Dir Definition
10's deg

Wind Spd Definition
km/h
Visibility Definition
km
Stn Press Definition
kPa
Hmdx Definition


Wind Chill Definition


Weather Definition


TIME
00:00 Legend Double Dagger -5.0 -7.4 83 33 29 24.1 100.79   -13 LegendNANA
01:00 Legend Double Dagger -4.9 -7.4 83 35 16 24.1 100.86   -11 Clear
02:00 Legend Double Dagger -5.4 -7.8 83 33 23 24.1 100.96   -13 LegendNANA
03:00 Legend Double Dagger -5.3 -7.6 84 30 25 24.1 101.07   -13 LegendNANA
04:00 Legend Double Dagger -5.0 -7.5 83 32 27 24.1 101.15   -13 Clear
05:00 Legend Double Dagger -5.5 -8.3 80 35 18 24.1 101.19   -12 LegendNANA
06:00 Legend Double Dagger -6.4 -8.9 82 30 15 24.1 101.30   -12 LegendNANA
07:00 Legend Double Dagger -6.2 -8.8 81 32 23 24.1 101.37   -14 Clear
08:00 Legend Double Dagger -5.0 -8.6 76 28 7 24.1 101.46   -8 LegendNANA
09:00 Legend Double Dagger -6.2 -9.1 80 34 16 24.1 101.47   -12 LegendNANA
10:00 Legend Double Dagger -4.8 -8.0 79 35 20 24.1 101.51   -11 Mainly Clear
11:00 Legend Double Dagger -3.9 -7.8 74 32 13 24.1 101.58   -9 LegendNANA
12:00 Legend Double Dagger -3.3 -7.4 73 31 7 24.1 101.62   -6 LegendNANA
13:00 Legend Double Dagger -2.6 -7.1 71 5 12 24.1 101.61   -7 Mainly Clear
14:00 Legend Double Dagger -2.5 -6.8 72 4 22 24.1 101.63   -9 LegendNANA
15:00 Legend Double Dagger -2.5 -6.9 72 33 3 24.1 101.66   -4 LegendNANA
16:00 Legend Double Dagger -2.7 -6.9 73 2 9 24.1 101.66   -6 Mostly Cloudy
17:00 Legend Double Dagger -3.9 -7.0 79 5 10 24.1 101.67   -8 LegendNANA
18:00 Legend Double Dagger -5.4 -7.8 83 8 16 24.1 101.69   -11 LegendNANA
19:00 Legend Double Dagger -5.5 -7.5 86 8 11 24.1 101.68   -10 Mostly Cloudy
20:00 Legend Double Dagger -4.9 -7.4 83 10 5 24.1 101.66   -7 LegendNANA
21:00 Legend Double Dagger -4.6 -7.2 82 8 16 24.1 101.64   -10 LegendNANA
22:00 Legend Double Dagger -5.8 -7.6 87 14 4 24.1 101.58   -8 Mostly Cloudy
23:00 Legend Double Dagger -6.2 -7.8 89 10 5 24.1 101.54   -9 LegendNANA

Notes on Data Quality.

Legend

  • E = Estimated
  • M = Missing
  • NA = Not Available
  • ‡ = Partner data that is not subject to review by the National Climate Archives
Date modified: